Temp
63 63 63 63 63 63 62 62 62 62 61 61 62 61 61 62 61 54 50 61 62 68 65 59 59 58 57 54 54 50 43 39 43 45 48 51 50 53 54 51 54 57 56 58 60
61 61 63 63 63 63 62 62 62 61 61 61 61 61 61 61 52 50 62 67 68 67 59 59 56 58 53 53 52 47 40 45 48 46 46 49 48 49 51 49 51 53 53 55 57
61 61 61 62 63 63 62 62 61 61 61 61 61 61 61 58 49 54 67 67 68 66 60 60 60 58 51 51 50 46 44 46 50 50 50 49 48 48 45 48 53 54 54 54 54
60 60 60 61 61 63 62 62 61 61 61 61 61 61 60 53 44 57 66 67 67 62 60 58 56 52 49 48 53 45 51 50 53 52 50 48 49 50 49 54 55 54 55 54 54
60 59 59 59 60 61 62 62 61 61 61 61 61 61 54 47 50 60 65 65 61 59 57 56 53 51 48 51 53 46 49 52 53 51 50 50 50 49 50 54 55 55 54 54 54
59 59 58 58 59 60 62 62 62 61 61 61 61 60 50 43 59 61 59 58 59 57 56 56 55 56 50 50 51 50 50 51 53 50 50 49 46 46 53 50 51 52 53 53 54
58 58 59 58 58 60 60 61 61 61 61 61 61 57 48 49 58 59 59 57 57 57 54 56 57 53 51 47 52 51 47 50 51 49 50 47 46 46 54 54 53 51 54 54 53
58 58 58 58 58 58 58 60 61 61 60 61 61 52 45 58 56 58 58 56 59 59 58 59 58 55 51 51 50 45 44 42 49 49 48 47 45 51 52 48 53 52 50 53 53
58 57 57 57 57 57 58 59 59 60 60 61 52 50 46 60 54 58 59 55 57 58 58 64 57 50 50 44 41 40 36 39 47 51 48 46 45 50 49 50 51 51 52 52 52
57 57 57 57 57 57 58 58 58 57 58 60 58 46 50 49 54 56 57 58 53 54 53 51 46 41 40 40 34 38 37 38 39 46 46 44 46 50 52 51 52 51 49 48 50
57 56 57 57 57 57 55 53 48 45 49 47 49 48 51 55 57 53 57 55 53 49 42 45 39 35 43 42 41 40 37 38 41 45 43 44 46 51 53 49 48 48 48 48 47
57 57 56 57 57 57 53 48 51 52 43 49 50 52 54 56 49 51 57 49 47 40 43 40 36 45 47 45 42 40 38 39 43 45 42 42 45 52 51 49 48 48 47 46 45
57 57 56 56 57 51 49 50 54 54 45 46 48 48 51 54 49 48 53 49 43 40 40 37 42 47 46 40 40 39 38 39 39 42 41 41 43 46 47 47 47 47 47 46 46
56 56 56 55 49 45 44 54 53 54 37 40 42 46 49 51 45 55 54 50 44 40 40 41 45 43 40 42 42 36 44 45 42 39 35 37 33 42 42 44 45 44 44 44 46
55 55 56 56 45 44 48 54 54 49 24 42 41 55 50 47 46 46 53 49 41 41 41 37 40 40 39 41 46 40 44 43 40 35 33 34 33 41 41 43 46 45 45 45 45
54 55 55 51 46 46 51 49 49 32 22 35 41 39 41 46 44 47 48 51 49 42 41 39 42 42 43 41 46 43 41 38 34 33 21 34 35 37 42 45 43 45 46 46 45
53 53 52 50 44 49 50 46 31 25 35 34 35 40 39 39 41 43 40 38 34 29 29 35 37 40 43 40 41 40 36 20 20 16 23 32 30 37 42 44 45 48 47 46 45
52 52 51 51 48 48 45 35 24 29 31 37 36 39 36 40 40 40 38 34 42 35 28 29 25 38 42 40 38 35 37 27 23 20 25 31 29 39 41 43 45 46 48 45 44
53 45 45 47 50 47 37 23 26 32 40 34 38 34 34 40 38 37 37 36 40 40 32 28 32 37 39 41 43 37 33 38 26 17 23 30 35 43 42 41 43 43 45 44 44
42 39 40 49 49 43 33 28 30 36 40 39 33 36 31 35 34 36 34 40 40 45 44 37 28 32 36 40 40 37 41 31 26 18 20 25 30 36 38 41 42 43 44 44 44
40 32 40 46 46 36 26 27 33 38 39 37 32 33 37 34 36 34 33 39 44 44 47 38 35 29 34 32 33 33 31 34 35 30 24 19 30 40 42 42 42 42 44 42 44
38 28 40 45 31 32 28 30 41 39 42 38 37 36 36 38 35 34 33 39 45 47 40 40 34 26 29 35 38 36 37 37 31 24 25 26 31 41 42 42 43 43 44 42 42
32 32 40 42 23 27 31 31 37 37 39 36 35 39 38 37 32 37 37 42 44 45 42 42 32 25 27 33 35 32 34 36 35 32 25 28 30 39 39 40 42 42 41 41 41
32 25 32 35 34 29 27 30 30 39 37 38 37 40 39 36 38 34 36 40 43 46 46 46 32 33 31 31 34 26 31 35 36 30 30 30 29 34 36 38 40 40 39 39 39
32 27 28 25 28 30 30 30 30 29 37 39 34 37 37 29 31 33 36 36 40 45 43 42 32 34 28 31 33 33 35 36 33 38 36 35 31 38 40 39 38 40 39 38 32
29 24 29 20 31 29 30 28 29 32 33 33 31 35 37 33 36 31 38 35 36 40 40 38 27 31 30 29 30 29 35 36 36 35 34 26 28 40 46 40 39 40 39 39 38
34 34 30 30 28 27 28 30 31 33 35 39 36 36 32 37 38 40 45 42 40 41 39 37 30 29 26 27 29 26 30 33 36 34 40 35 41 40 38 42 40 39 40 39 39
MSLP
1016.42 1016.34 1016.32 1016.35 1016.48 1016.53 1016.66 1016.79 1016.72 1016.66 1016.67 1016.53 1016.47 1016.23 1016.01 1015.75 1015.67 1015.67 1015.22 1013.52 1013.39 1013.32 1013.55 1013.70 1013.86 1013.82 1013.87 1014.22 1014.55 1015.02 1015.94 1015.86 1014.63 1013.88 1012.58 1012.07 1011.96 1011.68 1011.53 1011.64 1011.48 1011.43 1011.72 1012.05 1012.45
1016.55 1016.28 1016.25 1016.30 1016.06 1016.41 1016.44 1016.51 1016.64 1016.52 1016.41 1016.47 1016.41 1016.24 1015.92 1015.74 1015.64 1015.12 1013.42 1013.19 1013.16 1013.23 1013.61 1013.78 1013.93 1013.94 1014.27 1014.23 1014.62 1015.07 1015.77 1014.78 1013.72 1013.03 1012.62 1012.38 1012.34 1012.28 1012.17 1011.93 1011.75 1011.72 1012.05 1012.42 1012.86
1016.59 1016.51 1016.33 1016.10 1015.92 1016.20 1016.19 1016.04 1016.40 1016.44 1016.26 1016.27 1016.23 1016.19 1015.94 1015.85 1015.49 1013.53 1012.85 1012.99 1013.24 1013.24 1013.47 1013.70 1013.81 1013.98 1014.22 1014.25 1014.50 1014.82 1014.83 1014.21 1013.40 1012.95 1012.87 1012.81 1012.72 1012.61 1012.63 1012.42 1011.90 1011.83 1012.10 1012.74 1013.24
1016.93 1016.66 1016.33 1016.08 1015.81 1015.85 1015.90 1015.91 1015.97 1016.32 1016.00 1016.16 1016.07 1016.03 1015.82 1015.91 1014.95 1013.09 1012.84 1012.82 1013.25 1013.50 1013.54 1013.63 1014.00 1014.13 1014.23 1014.24 1014.10 1014.39 1013.93 1013.91 1013.48 1013.16 1013.18 1013.16 1012.99 1013.01 1012.81 1011.77 1011.44 1011.73 1012.03 1012.69 1013.26
1016.81 1016.78 1016.52 1016.11 1015.86 1015.69 1015.71 1015.76 1015.67 1015.86 1015.78 1016.02 1016.00 1015.79 1015.86 1015.62 1014.12 1013.10 1013.07 1013.23 1013.32 1013.70 1013.66 1013.66 1013.91 1014.11 1014.13 1014.01 1014.02 1014.18 1013.68 1013.53 1013.29 1013.41 1013.46 1013.30 1013.22 1013.29 1012.18 1011.48 1011.72 1012.08 1012.46 1012.82 1013.17
1016.66 1016.46 1016.38 1016.19 1016.08 1015.45 1015.28 1015.33 1015.64 1015.62 1015.66 1015.90 1015.82 1015.87 1015.77 1015.14 1013.24 1013.22 1013.39 1013.65 1013.64 1013.62 1013.70 1013.70 1013.59 1013.72 1013.75 1013.83 1013.98 1013.73 1013.70 1013.50 1013.22 1013.25 1013.30 1013.34 1013.24 1013.15 1011.33 1011.15 1011.45 1011.86 1012.12 1012.55 1012.88
1016.41 1016.33 1016.06 1016.03 1015.95 1015.47 1014.90 1015.19 1015.40 1015.61 1015.69 1015.71 1015.66 1015.84 1015.46 1013.73 1013.07 1013.28 1013.47 1013.64 1013.74 1013.60 1013.74 1013.60 1013.49 1013.59 1013.73 1013.73 1013.69 1013.76 1013.98 1013.47 1012.89 1012.87 1013.17 1013.13 1013.11 1012.47 1011.17 1011.50 1011.54 1011.74 1011.83 1011.97 1012.29
1015.86 1015.95 1015.86 1015.81 1015.74 1015.45 1015.10 1014.86 1015.17 1015.33 1015.77 1015.65 1015.47 1015.87 1014.85 1013.18 1013.11 1013.29 1013.57 1013.57 1013.74 1013.68 1013.58 1013.53 1013.43 1013.60 1013.84 1013.91 1014.04 1014.09 1014.16 1013.84 1012.68 1012.81 1012.94 1013.10 1012.38 1011.27 1010.98 1011.37 1011.54 1011.57 1011.82 1011.95 1012.04
1015.30 1015.53 1015.56 1015.58 1015.58 1015.35 1015.11 1014.66 1014.95 1015.31 1015.51 1015.69 1015.83 1015.51 1014.34 1013.18 1013.22 1013.05 1013.23 1013.61 1013.65 1013.78 1013.56 1013.55 1013.66 1014.12 1014.25 1014.56 1014.85 1014.71 1014.48 1014.01 1012.92 1012.66 1012.81 1013.12 1012.16 1011.21 1011.10 1011.39 1011.80 1011.67 1011.60 1011.84 1011.90
1014.89 1015.02 1015.23 1015.27 1015.18 1015.28 1014.95 1014.46 1015.04 1015.61 1015.51 1015.62 1015.48 1015.43 1013.82 1013.00 1012.99 1012.75 1013.26 1013.46 1013.85 1013.91 1014.09 1014.16 1014.74 1015.01 1015.17 1015.06 1014.73 1014.50 1014.52 1013.90 1013.41 1012.88 1012.94 1012.98 1012.25 1011.32 1011.07 1011.57 1011.58 1011.56 1011.61 1011.96 1012.27
1014.39 1014.54 1014.79 1014.86 1015.10 1015.07 1015.13 1014.83 1015.71 1015.87 1015.08 1014.03 1013.45 1013.12 1012.74 1012.74 1012.83 1012.88 1013.12 1013.65 1013.92 1014.32 1014.66 1014.86 1015.46 1014.94 1014.12 1014.31 1014.15 1014.18 1014.11 1013.66 1013.06 1012.83 1012.98 1012.81 1012.28 1011.35 1010.67 1011.14 1011.15 1011.27 1011.45 1011.79 1012.26
1013.83 1013.88 1014.16 1014.34 1014.48 1014.77 1014.63 1013.93 1013.35 1013.43 1013.77 1013.06 1013.15 1012.84 1012.65 1012.50 1012.89 1013.09 1012.99 1013.71 1014.22 1014.58 1014.99 1015.50 1014.79 1014.55 1014.61 1014.76 1014.63 1014.45 1014.27 1013.81 1013.29 1013.10 1013.17 1012.73 1011.75 1010.75 1010.39 1010.56 1010.97 1011.07 1011.27 1012.02 1012.79
1013.07 1013.27 1013.45 1013.79 1014.10 1014.37 1014.21 1013.28 1012.95 1013.06 1013.03 1012.49 1012.53 1012.39 1012.51 1012.51 1012.68 1012.62 1013.11 1013.36 1014.09 1014.61 1014.74 1014.79 1013.90 1013.65 1014.46 1014.78 1014.97 1014.62 1014.44 1014.03 1013.82 1013.57 1013.51 1013.31 1011.72 1010.46 1010.13 1010.32 1010.78 1011.30 1011.69 1012.29 1012.94
1012.26 1012.59 1012.86 1013.36 1013.99 1013.87 1013.43 1013.08 1013.04 1013.29 1013.41 1011.91 1012.19 1011.33 1011.84 1012.25 1012.50 1011.87 1012.34 1012.85 1013.76 1014.14 1014.81 1014.68 1013.72 1013.84 1014.18 1014.38 1014.65 1014.64 1014.00 1014.24 1014.51 1014.67 1014.86 1014.16 1013.08 1010.97 1010.26 1010.34 1010.91 1011.50 1012.22 1012.81 1013.45
1011.40 1011.69 1012.15 1012.53 1012.34 1012.86 1012.58 1012.62 1012.96 1013.68 1011.88 1010.30 1010.99 1010.28 1010.54 1011.21 1010.94 1011.31 1011.65 1012.58 1013.25 1013.77 1014.30 1013.37 1013.46 1013.69 1013.83 1013.37 1013.96 1014.22 1014.25 1014.87 1015.38 1015.85 1015.76 1015.07 1014.64 1011.16 1010.61 1010.32 1010.71 1011.43 1012.22 1012.87 1013.55
1010.41 1010.78 1011.33 1011.67 1012.46 1011.83 1011.84 1012.52 1012.71 1013.01 1010.84 1010.17 1010.05 1010.29 1010.72 1010.60 1011.15 1011.35 1011.61 1012.54 1012.95 1013.73 1013.76 1013.63 1013.32 1013.26 1012.97 1013.29 1013.32 1014.29 1015.00 1016.12 1016.93 1017.39 1017.10 1015.30 1014.62 1012.05 1010.74 1009.98 1010.35 1011.11 1012.05 1012.78 1013.58
1009.37 1009.95 1010.34 1010.79 1010.91 1011.45 1011.85 1012.39 1011.99 1010.32 1009.25 1009.32 1009.16 1009.50 1009.74 1010.11 1010.97 1010.66 1011.42 1012.30 1013.03 1013.91 1013.85 1013.94 1013.59 1013.27 1013.11 1013.60 1013.99 1014.14 1015.32 1017.55 1018.57 1018.87 1017.34 1015.99 1015.28 1011.70 1010.40 1009.96 1010.27 1010.91 1011.81 1012.70 1013.51
1008.58 1009.07 1009.17 1009.56 1010.27 1011.05 1012.04 1012.13 1008.95 1007.55 1007.51 1007.34 1007.85 1008.94 1009.31 1009.55 1010.26 1010.48 1011.37 1012.13 1012.44 1013.04 1013.28 1013.54 1014.04 1013.07 1012.74 1012.82 1012.97 1014.07 1014.36 1015.78 1017.29 1018.47 1017.41 1016.42 1014.58 1011.26 1010.40 1010.21 1010.36 1010.85 1011.57 1012.56 1013.43
1007.25 1008.04 1008.28 1008.66 1009.33 1010.23 1010.54 1009.19 1007.09 1006.23 1005.49 1006.64 1007.68 1008.30 1008.86 1008.74 1009.14 1010.09 1010.39 1010.46 1008.78 1010.77 1012.10 1012.65 1013.02 1012.98 1012.88 1012.68 1012.76 1014.02 1014.41 1014.51 1016.05 1018.40 1017.29 1015.53 1013.39 1011.18 1010.74 1010.74 1010.78 1011.26 1012.06 1012.70 1013.35
1006.49 1007.52 1007.01 1007.68 1008.57 1009.13 1008.25 1006.92 1006.75 1005.72 1004.58 1005.41 1005.66 1006.24 1006.84 1007.53 1008.47 1009.25 1009.96 1008.73 1008.54 1008.73 1009.51 1010.96 1012.56 1013.34 1013.38 1013.13 1013.01 1012.87 1013.32 1014.53 1015.53 1016.85 1016.66 1014.96 1013.71 1011.44 1011.13 1011.13 1011.22 1011.61 1012.12 1012.67 1013.18
1005.66 1006.15 1005.81 1007.11 1007.83 1007.06 1004.82 1005.01 1005.36 1004.92 1004.75 1004.40 1004.64 1005.39 1005.52 1006.18 1006.73 1007.68 1007.78 1007.40 1007.48 1008.10 1009.12 1010.40 1011.42 1013.86 1013.72 1012.99 1012.49 1013.42 1013.21 1013.29 1013.65 1014.40 1014.58 1014.57 1012.17 1010.20 1010.30 1010.77 1011.27 1011.76 1012.18 1012.57 1013.05
1004.24 1004.10 1004.11 1005.78 1005.60 1004.59 1004.56 1004.77 1004.12 1003.96 1004.42 1004.29 1003.90 1004.06 1004.40 1005.15 1005.98 1006.66 1006.42 1005.50 1006.17 1006.87 1008.00 1009.38 1011.82 1013.19 1013.11 1013.10 1012.98 1012.58 1012.14 1012.14 1012.56 1013.93 1014.07 1013.49 1011.45 1010.31 1010.31 1010.75 1011.34 1012.01 1012.54 1012.92 1013.18
1003.34 1003.66 1003.95 1004.03 1004.02 1003.81 1004.07 1004.20 1003.99 1003.56 1003.81 1004.33 1003.66 1003.23 1003.33 1004.07 1005.19 1005.38 1005.50 1005.13 1005.65 1006.27 1006.55 1008.34 1010.92 1012.37 1013.21 1013.43 1012.95 1012.74 1012.10 1011.62 1011.76 1012.27 1012.90 1013.05 1011.49 1010.93 1011.04 1011.48 1011.83 1012.28 1012.83 1013.20 1013.46
1003.23 1002.56 1003.48 1003.01 1003.07 1004.06 1004.27 1003.23 1003.69 1003.33 1003.42 1003.88 1003.24 1002.95 1002.96 1003.72 1003.99 1004.72 1005.12 1005.05 1004.98 1005.73 1006.58 1007.65 1009.10 1009.99 1010.71 1010.78 1011.09 1012.22 1011.48 1011.52 1011.22 1011.56 1011.34 1011.13 1011.27 1011.53 1011.63 1011.78 1012.27 1012.66 1012.99 1013.54 1013.98
1001.98 1001.83 1001.85 1001.86 1002.15 1002.88 1003.96 1003.53 1002.58 1003.01 1003.15 1003.11 1003.30 1002.49 1002.46 1003.29 1003.64 1003.96 1004.70 1005.07 1005.43 1005.61 1006.68 1007.66 1008.24 1009.34 1010.53 1010.81 1010.83 1010.36 1010.20 1010.67 1010.70 1009.91 1010.28 1010.00 1010.56 1010.50 1010.71 1011.15 1011.93 1012.47 1013.23 1013.87 1014.34
1000.07 1001.59 1001.35 1001.76 1001.93 1002.53 1002.48 1002.75 1002.53 1002.21 1002.04 1002.65 1003.44 1002.78 1002.67 1002.24 1002.22 1002.51 1002.71 1003.43 1003.78 1005.57 1006.13 1007.07 1008.20 1008.77 1010.27 1010.86 1010.80 1010.54 1009.81 1009.54 1009.06 1009.45 1009.56 1009.53 1009.63 1009.10 1009.87 1011.16 1012.03 1012.47 1013.23 1013.92 1014.39
999.41 1000.51 1000.65 1001.01 1001.33 1001.79 1001.37 1001.74 1001.56 1002.51 1001.89 1001.90 1002.23 1002.43 1002.62 1002.69 1002.26 1002.15 1002.02 1002.54 1002.76 1003.84 1005.38 1006.98 1008.03 1009.24 1010.44 1010.87 1010.89 1010.39 1007.91 1008.50 1008.54 1008.21 1008.15 1008.39 1008.39 1009.03 1010.04 1010.70 1011.23 1012.11 1012.91 1013.67 1014.23
Wind_Speed
16 8 8 7 6 5 5 6 5 4 5 6 7 6 7 6 7 1 6 8 5 4 3 2 1 2 2 2 2 4 4 3 5 7 5 1 2 1 2 2 3 2 4 2 9
15 16 9 8 6 8 6 5 5 4 4 6 7 8 7 6 1 7 9 7 7 7 3 5 4 4 1 3 1 5 4 9 4 3 3 1 1 3 3 3 3 3 1 4 9
14 12 13 10 9 9 8 6 5 5 5 5 6 7 8 5 3 6 4 10 6 6 2 3 3 2 2 2 4 5 6 3 3 2 1 2 3 1 1 6 9 7 5 7 6
13 14 12 13 11 11 9 7 6 6 4 5 5 6 7 2 3 1 2 7 5 5 4 4 3 3 4 5 4 3 7 4 4 1 0 3 2 5 7 11 2 7 5 7 9
14 12 13 14 14 11 10 9 7 6 5 5 5 4 2 1 9 0 4 5 6 4 5 5 5 4 3 3 4 3 3 4 4 4 5 2 7 6 12 12 9 5 3 9 8
12 12 11 13 16 15 11 9 9 7 6 4 3 3 2 3 0 4 6 4 3 4 4 4 6 5 3 2 4 2 3 6 5 3 4 4 3 1 7 1 3 7 10 9 11
11 12 12 12 15 15 11 10 10 8 7 5 1 1 1 12 1 5 6 3 2 3 4 2 1 2 1 1 1 1 5 6 6 2 6 3 6 11 9 7 7 3 6 8 11
12 11 12 13 15 16 18 11 9 7 7 5 3 1 8 2 2 5 2 2 1 2 0 2 1 3 2 1 4 1 2 3 1 6 2 4 9 2 3 4 7 7 6 6 5
14 11 10 11 13 15 17 12 7 7 5 4 2 4 9 1 3 4 5 3 4 1 2 2 2 2 2 4 3 2 3 5 7 7 3 4 7 4 2 5 8 8 8 7 7
12 14 12 11 12 13 14 12 8 1 2 3 2 1 3 3 3 5 3 6 2 5 3 3 5 2 2 4 8 6 4 5 5 2 2 2 12 11 9 6 12 11 9 8 8
16 15 15 12 12 12 7 7 4 4 5 9 7 3 2 1 2 2 5 4 4 4 6 2 4 10 19 4 2 3 3 4 3 1 1 6 10 14 12 6 10 10 8 7 2
19 15 18 14 13 12 5 5 4 2 5 16 1 4 2 4 2 3 8 7 6 6 5 3 10 10 5 5 4 2 0 4 3 1 2 5 15 11 8 4 4 7 2 6 5
19 17 15 17 12 6 10 5 3 3 5 4 8 6 5 7 6 8 11 6 4 6 8 8 4 10 8 4 7 5 5 4 3 2 1 6 9 4 1 2 3 6 4 4 7
22 20 17 17 7 4 6 8 3 0 6 4 8 9 6 8 6 7 9 6 4 11 8 6 4 6 5 9 8 5 8 6 2 3 5 2 7 6 1 2 2 3 4 5 6
24 21 20 23 5 6 3 10 8 5 6 7 9 5 11 13 11 9 5 3 7 7 8 10 8 6 5 7 9 6 5 6 3 3 2 2 2 10 3 4 5 6 6 6 6
24 23 22 14 4 4 5 4 6 8 14 8 7 11 13 11 3 6 7 3 3 4 2 5 0 3 7 2 7 9 7 8 5 3 3 7 7 7 5 5 3 3 5 7 7
21 25 20 8 11 9 5 4 13 18 4 10 10 12 12 9 8 7 17 18 8 6 7 1 3 1 3 7 3 4 7 3 4 4 7 3 1 10 3 3 2 6 7 7 7
23 22 18 11 6 9 6 6 21 10 12 4 10 14 13 13 7 8 19 15 15 1 4 10 5 9 6 7 10 6 7 8 9 6 4 3 8 9 4 1 1 1 6 6 7
26 9 9 8 13 10 10 16 23 11 18 12 14 17 10 14 8 8 16 16 26 22 10 7 6 2 1 2 6 7 6 5 9 2 4 5 7 8 3 2 2 3 5 6 7
8 7 14 10 14 11 14 27 14 6 9 10 17 14 16 22 11 18 15 14 10 23 6 6 3 1 0 1 1 3 7 4 3 5 4 4 5 7 6 8 5 5 6 5 5
9 7 7 12 12 10 15 18 20 9 3 13 11 10 16 17 18 18 18 4 22 22 11 5 3 1 3 8 9 4 3 3 5 5 7 3 8 6 8 9 9 7 5 3 6
9 8 10 17 13 6 13 9 22 21 8 5 6 6 15 20 18 14 19 11 23 20 23 6 5 5 6 4 3 2 6 6 6 6 2 3 8 3 6 8 8 7 6 4 5
7 4 4 16 15 15 5 7 19 19 19 6 6 6 5 15 10 16 15 8 14 20 25 17 6 5 4 5 1 5 5 3 4 4 8 8 7 4 5 7 5 8 6 4 5
5 5 4 11 4 19 18 14 19 23 9 5 5 5 8 8 3 16 9 3 15 21 13 20 5 6 9 3 10 7 7 7 4 5 6 8 5 5 7 8 7 7 6 6 4
10 8 6 11 12 16 17 11 22 16 21 16 5 9 8 7 8 8 6 5 5 15 16 15 11 14 4 2 3 6 16 16 13 12 13 9 10 11 16 14 10 8 7 7 3
8 4 2 3 10 20 20 24 12 21 14 21 20 12 10 8 10 12 15 7 9 11 16 5 3 4 9 2 2 3 10 19 22 12 7 4 5 5 8 8 7 8 9 8 6
4 0 2 6 13 13 19 23 28 18 13 15 22 12 14 8 3 5 6 8 13 17 13 9 6 4 3 4 6 6 20 15 16 8 15 17 10 7 6 13 12 9 8 8 7
Wind_Direction
360 262 272 268 270 263 263 284 292 304 312 318 318 320 320 322 316 172 241 216 184 203 159 119 199 175 89 104 91 129 63 210 233 164 237 14 33 206 293 252 317 215 166 292 123
2 0 284 272 258 264 256 262 279 290 304 314 320 322 327 331 282 246 246 245 213 156 137 159 174 144 91 155 77 100 138 219 215 221 245 246 168 312 353 325 270 265 90 86 127
345 347 337 294 267 256 252 245 263 271 291 306 319 324 329 329 321 247 279 219 189 157 143 170 137 154 153 140 186 157 200 219 266 227 225 289 288 276 229 270 229 223 197 155 145
328 334 335 327 290 259 252 243 236 259 276 296 316 328 327 308 246 314 356 157 159 149 134 149 134 162 159 189 182 170 237 217 285 347 86 256 315 285 206 230 214 222 173 162 172
298 319 327 331 319 257 248 244 237 242 256 281 309 345 8 3 256 183 123 121 118 145 173 156 145 143 203 212 145 223 259 183 245 295 266 309 248 238 263 251 258 236 178 201 199
296 295 318 326 324 323 245 236 236 227 233 255 294 334 124 253 142 142 128 122 155 144 174 152 177 193 187 219 182 232 261 286 275 226 262 233 246 85 271 327 267 215 228 217 211
273 283 286 318 311 306 255 231 223 225 221 228 240 157 142 237 60 143 146 179 190 159 154 208 181 154 135 256 328 338 319 314 238 213 222 168 279 232 254 297 282 229 243 226 225
258 268 282 286 307 319 329 219 220 207 229 217 175 148 247 271 135 138 185 151 209 240 209 231 212 126 146 266 19 10 38 323 232 144 193 136 270 268 357 217 259 274 268 256 239
256 245 259 272 288 303 313 203 191 219 215 209 146 153 264 143 150 190 150 168 142 222 312 118 76 127 81 97 8 356 222 217 309 191 126 170 266 262 89 49 299 277 265 278 294
274 253 243 253 272 290 303 176 157 100 215 200 243 90 237 219 210 150 165 150 151 132 63 74 54 109 58 137 210 194 215 246 250 220 195 218 266 276 272 255 252 265 272 273 271
258 253 242 242 255 270 312 118 143 202 213 196 202 190 147 180 142 155 147 123 102 89 159 184 149 203 206 164 104 145 196 226 226 166 241 238 268 279 280 233 276 274 262 245 180
257 247 242 237 242 259 267 225 200 98 228 231 332 294 222 150 133 170 133 148 153 179 136 101 229 212 165 184 240 29 186 256 279 253 200 323 288 261 268 247 281 290 249 147 122
245 245 238 230 235 262 245 245 355 33 260 179 189 184 198 153 215 196 156 146 156 161 185 180 216 172 168 156 179 219 194 215 215 347 292 329 293 330 50 99 27 35 85 107 146
246 242 233 219 204 190 232 213 173 155 267 196 203 232 158 123 258 178 174 138 190 189 149 250 223 140 166 204 153 222 199 176 197 88 231 28 276 301 326 266 46 81 102 132 133
241 241 231 198 173 181 243 165 156 62 233 190 164 159 158 172 143 198 152 105 180 183 143 228 181 161 173 206 154 223 126 147 109 105 11 266 75 270 323 241 197 204 196 180 177
241 237 227 217 218 183 124 196 144 193 216 185 139 174 161 194 196 108 131 35 154 160 274 223 257 199 193 104 156 155 83 51 57 70 339 218 161 273 203 208 158 171 193 188 180
240 232 224 197 220 190 119 182 195 218 192 180 181 176 175 174 164 150 170 172 182 133 197 143 211 258 159 92 56 105 99 19 358 10 223 16 149 247 236 205 194 188 195 184 175
232 224 230 211 171 145 143 228 215 184 193 117 152 155 188 147 187 167 160 185 210 132 137 167 238 167 182 191 171 184 161 157 193 193 224 113 225 250 210 275 137 333 164 154 171
222 247 227 209 180 162 188 217 206 198 195 144 140 153 185 177 144 145 188 207 186 178 176 154 237 342 73 151 148 185 198 150 105 43 66 212 281 290 183 158 137 143 137 169 183
204 220 202 192 182 193 217 219 205 231 168 163 178 187 177 178 149 184 176 204 200 195 152 199 118 315 348 160 6 160 158 95 348 135 230 270 275 240 215 203 172 165 190 198 192
201 204 187 177 180 211 226 203 215 228 267 173 184 169 189 176 181 188 186 245 196 188 164 120 93 302 151 215 170 153 191 192 129 155 165 170 252 216 205 180 176 175 160 155 189
219 227 171 168 216 214 217 176 218 215 207 275 183 147 176 178 180 185 199 201 194 167 188 127 98 176 202 292 319 303 207 174 149 229 236 153 264 327 199 165 152 161 151 123 112
211 220 191 166 210 217 177 188 214 215 214 226 227 200 162 170 168 196 201 203 164 190 175 160 186 128 92 336 105 228 209 198 110 89 197 149 251 11 106 135 161 153 154 138 118
195 193 203 197 185 218 226 194 202 221 208 197 253 201 140 162 201 183 198 184 177 195 148 159 119 196 208 198 142 204 193 201 168 173 163 219 153 212 189 176 184 169 154 142 121
182 199 203 187 206 193 224 245 193 210 217 186 272 227 178 149 179 166 154 130 148 174 158 176 187 188 176 209 225 216 192 192 205 208 196 192 182 202 196 192 186 168 147 141 142
174 181 82 150 191 205 199 218 231 204 181 214 220 195 241 167 189 186 167 173 166 176 165 175 155 146 188 95 12 257 222 202 209 202 238 111 247 207 180 117 164 167 159 162 149
193 99 107 214 209 203 209 215 216 227 218 219 218 224 211 205 19 279 190 155 151 165 166 153 132 133 195 140 123 278 225 204 215 203 199 210 195 154 155 181 182 167 165 154 146